x

West Dixon Entrance (46205) Wave Buoy

7:00am - Sun 2nd Aug 2015 All times are PDT. -7 hours from GMT.

  • Sig Wave height 2.3ft
  • Peak Period 12s
  • Wind
    4mph, 7mph gusts
  • Sea Temp 60°f
  • Air Temp 57°f
  • Sea Pressure 1017.7mb
  • West Dixon Entrance
  • West Dixon Entrance

More Historic Weather Station data

Upgrade to MSW Pro to gain access to the past 30 days of data for over 8000 Wavebouys and Weather Stations around the globe.

Join Pro

Comparision Forecast

View Surf forecast
   
Sun 08/02 7:00am 2.5ft 12s 4 7 mph 1017.7mb 60f 57f
6:00am 2.5ft 14s 2 4 mph 1017.6mb 60f 56f
5:00am 2.5ft 13s  -  2 mph 1017.8mb 60f 56f
4:00am 2.5ft 14s 4
mph
1018mb 60f 56f
3:00am 2.5ft 14s 4
mph
1018.1mb 60f 56f
2:00am 2.5ft 14s 4 7 mph 1018.4mb 60f 58f
1:00am 3ft 14s 9 11 mph 1018.6mb 60f 59f
12:00am 2.5ft 14s 7
mph
1019mb 60f 59f
Sat 08/01 11:00pm 3ft 14s 4 7 mph 1019.6mb 61f 59f
10:00pm 2.5ft 14s 4
mph
1020mb 61f 59f
9:00pm 3ft 14s 4 7 mph 1020.1mb 61f 58f
8:00pm 3ft 14s 4
mph
1020.2mb 62f 58f
7:00pm 3.5ft 14s 2 4 mph 1020.6mb 61f 58f
6:00pm 3.5ft 14s 2 4 mph 1021mb 62f 59f
5:00pm 3ft 14s 2 4 mph 1021.4mb 62f 59f
4:00pm 3ft 14s 2 4 mph 1021.6mb 62f 59f
3:00pm 3ft 14s 2 4 mph 1021.8mb 62f 60f
2:00pm 3ft 14s 2 4 mph 1021.9mb 62f 60f
1:00pm 3ft 15s 2
mph
1022mb 62f 60f
12:00pm 3.5ft 14s  -  2 mph 1021.9mb 60f 61f
11:00am 3.5ft 15s 2
mph
1021.8mb 60f 60f
10:00am 4ft 15s 2
mph
1022mb 60f 59f
9:00am 4ft 15s 4
mph
1022mb 60f 56f
8:00am 3.5ft 15s 4
mph
1022.2mb 60f 57f
7:00am 3.5ft 15s 2 4 mph 1021.8mb 59f 57f
6:00am 3.5ft 14s 4 9 mph 1021.8mb 60f 57f
5:00am 4ft 15s 7 9 mph 1021.6mb 60f 59f
4:00am 3.5ft 14s 4
mph
1021.3mb 60f 59f
3:00am 3.5ft 14s 4
mph
1021.3mb 60f 59f
2:00am 3.5ft 15s 2
mph
1021.4mb 60f 59f
1:00am 3.5ft 14s 4
mph
1021.2mb 60f 58f
12:00am 4ft 14s 4 7 mph 1021.2mb 60f 58f
Fri 07/31 11:00pm 3.5ft 15s 7
mph
1021.2mb 60f 58f
10:00pm 3.5ft 15s 7 9 mph 1021.1mb 60f 58f
9:00pm 4ft 15s 4 7 mph 1020.8mb 60f 58f
8:00pm 4ft 15s 7
mph
1020.7mb 60f 58f
7:00pm 4.5ft 16s 7
mph
1020.7mb 60f 58f
6:00pm 4.5ft 7s 11 13 mph 1020.4mb 60f 58f
5:00pm 4.5ft 14s 11 13 mph 1020.3mb 60f 59f
3:00pm 4.5ft 15s 13 16 mph 1019.6mb 60f 59f
2:00pm 4.5ft 15s 9 11 mph 1019.4mb 60f 59f
1:00pm 4.5ft 14s 9
mph
1018.9mb 59f 58f
12:00pm 4.5ft 15s 11 13 mph 1018.5mb 59f 59f
11:00am 4.5ft 15s 7 9 mph 1018.1mb 59f 58f
10:00am 5ft 7s 11 13 mph 1017.8mb 59f 58f
9:00am 4.5ft 16s 11 16 mph 1017.2mb 59f 58f
8:00am 5ft 7s 13 16 mph 1016.8mb 59f 58f
7:00am 5ft 14s 11 16 mph 1016.3mb 59f 58f
6:00am 5ft 6s 13 18 mph 1016mb 59f 58f
5:00am 5ft 7s 13 18 mph 1015.7mb 59f 58f
4:00am 5ft 15s 16 18 mph 1015.5mb 59f 58f
3:00am 5.5ft 7s 16 18 mph 1015.3mb 59f 58f
2:00am 5.5ft 7s 16 18 mph 1015.3mb 59f 59f
1:00am 5.5ft 7s 16 20 mph 1015.3mb 59f 59f
12:00am 6ft 7s 18 22 mph 1015.5mb 59f 59f
Thu 07/30 11:00pm 6ft 7s 18 22 mph 1015.9mb 59f 59f
10:00pm 6ft 16s 20 25 mph 1015.8mb 59f 59f
9:00pm 6ft 15s 20 25 mph 1015.8mb 59f 59f
8:00pm 6ft 16s 22 25 mph 1016mb 59f 59f
7:00pm 6ft 15s 20 22 mph 1016.5mb 59f 59f
6:00pm 5ft 15s 20 25 mph 1016.9mb 59f 59f
5:00pm 5.5ft 16s 18 20 mph 1017.4mb 59f 59f
4:00pm 5ft 16s 18 22 mph 1017.5mb 59f 59f
3:00pm 5ft 16s 18 20 mph 1017.7mb 59f 59f
2:00pm 5ft 15s 18 22 mph 1017.6mb 58f 59f
1:00pm 4.5ft 16s 18 22 mph 1017.8mb 59f 59f
12:00pm 4.5ft 15s 18 20 mph 1018mb 59f 59f
11:00am 4.5ft 16s 13 16 mph 1018.4mb 59f 58f
10:00am 5ft 16s 13 16 mph 1018.9mb 59f 58f
9:00am 5ft 15s 13 16 mph 1019.1mb 59f 58f
8:00am 5ft 17s 11 13 mph 1019.2mb 59f 58f
7:00am 5ft 16s 13 16 mph 1019.3mb 59f 58f
6:00am 5ft 16s 13 18 mph 1019.3mb 59f 58f
5:00am 5.5ft 16s 13 18 mph 1019.4mb 59f 58f
4:00am 5ft 16s 18 22 mph 1019.7mb 59f 58f
3:00am 5ft 15s 18 22 mph 1019.8mb 59f 58f
2:00am 5ft 17s 20 25 mph 1020.1mb 59f 57f
1:00am 4.5ft 16s 20 25 mph 1020.5mb 59f 57f
12:00am 4.5ft 17s 18 20 mph 1020.8mb 59f 59f
Wed 07/29 11:00pm 4.5ft 17s 16 18 mph 1021.6mb 59f 58f
10:00pm 4.5ft 16s 16 18 mph 1021.9mb 59f 59f
9:00pm 5ft 17s 13 16 mph 1022.2mb 59f 58f
8:00pm 5ft 16s 9 11 mph 1022.6mb 59f 58f
7:00pm 5ft 16s 11 13 mph 1023mb 59f 56f
6:00pm 5.5ft 17s 13
mph
1023.3mb 59f 58f
5:00pm 5ft 17s 13 16 mph 1023.7mb 59f 58f
4:00pm 5ft 17s 13 18 mph 1023.8mb 59f 58f